STARLINK-34830 (65405 NORAD) Tracking and Keplerian Element Data

This shows tracking and keplerian element data for the satellite.

Feedback or suggestion? Click here.




ElementValue
Catalog65405
NameSTARLINK-34830
Epoch Orbit589
Epoch Day354.25003472
Epoch Year2025
RAAN246.2245
Inclination53.1574
Eccentricity0.0001128
Argument of Perigee84.613
Mean Anonmoly252.2159
Mean Motion15.39613801
Decay Rate0.00022994
L11 65405U 25192B 25354.25003472 .00022994 00000+0 58320-3 0 9997
L22 65405 53.1574 246.2245 0001128 84.6130 252.2159 15.39613801 5891



Live tracking and technical data element details for STARLINK-34830 (NORAD 65405). STARLINK-34830 can be tracked NOW for your location showing map with azimuth and elevation plus other details from your city location.







IsCatalogInMostPopularTable: catalog: 65405, numindb: 13
Update: records affected: 1



GetName: 65405 STARLINK-34830

Hit Count: updated at: Thu, 21 May 2026 10:52:04 GMT